RYR73QL EPMO-EGGP

Flight info

Callsign RYR73QL
Flight time 2h 14m
Altitude 38000
Route OLILA DCT ALUKA DCT VIBIS L619 BKD Z870 NEBUN DCT EEL DCT MIMVA DCT BODSO DCT SUPEL DCT OTBED DCT VEGUS
Aircraft B738/M-SDE2E3FGHIRWXY/LB1

Departure

Time 2026-05-07 12:15
Airport Warsaw Modlin Airport (EPMO)

Arrival

Time 2026-05-07 14:29
Airport Liverpool John Lennon Airport (EGGP)
Time Latitude Longitude Altitude Speed Heading
2026-05-07 11:56 52.44725 20.65021 337 ft 0 kts 206°
2026-05-07 12:06 52.44729 20.65024 337 ft 2 kts 205°
2026-05-07 12:06 52.44746 20.65035 334 ft 3 kts 182°
2026-05-07 12:06 52.44762 20.65031 332 ft 3 kts 132°
2026-05-07 12:06 52.44768 20.65011 335 ft 2 kts 82°
2026-05-07 12:07 52.44767 20.65000 334 ft 0 kts 81°
2026-05-07 12:10 52.44767 20.65004 337 ft 1 kts 81°
2026-05-07 12:10 52.44772 20.65061 337 ft 10 kts 82°
2026-05-07 12:10 52.44787 20.65222 337 ft 19 kts 81°
2026-05-07 12:10 52.44808 20.65441 332 ft 19 kts 81°
2026-05-07 12:11 52.44827 20.65657 337 ft 19 kts 83°
2026-05-07 12:11 52.44846 20.65866 336 ft 18 kts 81°
2026-05-07 12:11 52.44865 20.66067 337 ft 18 kts 81°
2026-05-07 12:11 52.44883 20.66262 335 ft 17 kts 81°
2026-05-07 12:12 52.44900 20.66450 337 ft 17 kts 81°
2026-05-07 12:12 52.44920 20.66652 337 ft 19 kts 81°
2026-05-07 12:12 52.44940 20.66866 335 ft 18 kts 81°
2026-05-07 12:12 52.44969 20.67057 335 ft 17 kts 47°
2026-05-07 12:13 52.45077 20.67063 335 ft 16 kts 351°
2026-05-07 12:13 52.45185 20.67034 336 ft 15 kts 346°
2026-05-07 12:13 52.45262 20.66992 336 ft 10 kts 336°
2026-05-07 12:13 52.45284 20.66902 338 ft 8 kts 262°
2026-05-07 12:14 52.45274 20.66799 336 ft 13 kts 261°
2026-05-07 12:14 52.45234 20.66378 334 ft 73 kts 261°
2026-05-07 12:14 52.45120 20.65164 337 ft 140 kts 261°
2026-05-07 12:14 52.44961 20.63356 687 ft 168 kts 263°
2026-05-07 12:15 52.44802 20.61408 1487 ft 178 kts 265°
2026-05-07 12:15 52.44618 20.59337 2182 ft 193 kts 263°
2026-05-07 12:15 52.44438 20.57120 2866 ft 198 kts 263°
2026-05-07 12:15 52.44260 20.54899 3510 ft 205 kts 263°
2026-05-07 12:16 52.44166 20.52418 3813 ft 229 kts 276°
2026-05-07 12:16 52.44428 20.49750 4246 ft 252 kts 278°
2026-05-07 12:16 52.44732 20.46746 4555 ft 280 kts 278°
2026-05-07 12:16 52.45055 20.43523 5345 ft 290 kts 278°
2026-05-07 12:17 52.45383 20.40238 6384 ft 292 kts 277°
2026-05-07 12:17 52.45713 20.36937 7294 ft 295 kts 277°
2026-05-07 12:17 52.46044 20.33594 8158 ft 299 kts 277°
2026-05-07 12:17 52.46375 20.30247 9023 ft 302 kts 277°
2026-05-07 12:18 52.46712 20.26829 9917 ft 306 kts 277°
2026-05-07 12:18 52.47056 20.23325 10458 ft 320 kts 276°
2026-05-07 12:18 52.47418 20.19593 10751 ft 340 kts 276°
2026-05-07 12:18 52.47807 20.15715 11379 ft 347 kts 277°
2026-05-07 12:19 52.48217 20.11787 12144 ft 351 kts 277°
2026-05-07 12:19 52.48633 20.07834 12895 ft 355 kts 277°
2026-05-07 12:19 52.49051 20.03850 13619 ft 360 kts 276°
2026-05-07 12:19 52.49477 19.99777 14269 ft 364 kts 276°
2026-05-07 12:20 52.49905 19.95659 14977 ft 367 kts 276°
2026-05-07 12:20 52.50334 19.91501 15660 ft 370 kts 276°
2026-05-07 12:20 52.50765 19.87310 16314 ft 374 kts 276°
2026-05-07 12:20 52.51199 19.83073 16970 ft 378 kts 276°
2026-05-07 12:21 52.51635 19.78792 17642 ft 381 kts 276°
2026-05-07 12:21 52.52072 19.74478 18266 ft 385 kts 276°
2026-05-07 12:21 52.52507 19.70176 18825 ft 388 kts 276°
2026-05-07 12:21 52.52949 19.65789 19433 ft 389 kts 276°
2026-05-07 12:22 52.53389 19.61396 20034 ft 391 kts 276°
2026-05-07 12:22 52.53833 19.56959 20604 ft 394 kts 275°
2026-05-07 12:22 52.54276 19.52498 21158 ft 396 kts 275°
2026-05-07 12:22 52.54720 19.48021 21710 ft 398 kts 275°
2026-05-07 12:23 52.55164 19.43516 22253 ft 401 kts 275°
2026-05-07 12:23 52.55605 19.39023 22777 ft 403 kts 275°
2026-05-07 12:23 52.56052 19.34458 23300 ft 406 kts 275°
2026-05-07 12:23 52.56500 19.29864 23762 ft 408 kts 275°
2026-05-07 12:24 52.56949 19.25235 24178 ft 411 kts 274°
2026-05-07 12:24 52.57399 19.20579 24589 ft 413 kts 274°
2026-05-07 12:24 52.57848 19.15905 25000 ft 415 kts 274°
2026-05-07 12:24 52.58295 19.11240 25394 ft 418 kts 274°
2026-05-07 12:25 52.58747 19.06506 25775 ft 420 kts 274°
2026-05-07 12:25 52.59199 19.01741 26149 ft 423 kts 273°
2026-05-07 12:25 52.59652 18.96946 26514 ft 425 kts 273°
2026-05-07 12:25 52.60106 18.92123 26869 ft 427 kts 273°
2026-05-07 12:26 52.60561 18.87271 27219 ft 430 kts 272°
2026-05-07 12:26 52.61015 18.82398 27552 ft 432 kts 272°
2026-05-07 12:26 52.61467 18.77533 27897 ft 434 kts 272°
2026-05-07 12:26 52.61923 18.72605 28258 ft 436 kts 272°
2026-05-07 12:27 52.62377 18.67676 28729 ft 435 kts 272°
2026-05-07 12:27 52.62829 18.62767 29257 ft 432 kts 271°
2026-05-07 12:27 52.63275 18.57894 29768 ft 430 kts 271°
2026-05-07 12:27 52.63718 18.53025 30200 ft 429 kts 271°
2026-05-07 12:28 52.64157 18.48164 30585 ft 428 kts 271°
2026-05-07 12:28 52.64592 18.43328 31009 ft 426 kts 271°
2026-05-07 12:28 52.65023 18.38515 31434 ft 424 kts 271°
2026-05-07 12:28 52.65451 18.33708 31831 ft 423 kts 271°
2026-05-07 12:29 52.65870 18.28983 32187 ft 422 kts 271°
2026-05-07 12:29 52.66290 18.24205 32560 ft 421 kts 271°
2026-05-07 12:29 52.66708 18.19446 32935 ft 419 kts 271°
2026-05-07 12:29 52.67123 18.14686 33305 ft 418 kts 271°
2026-05-07 12:30 52.67534 18.09950 33649 ft 418 kts 271°
2026-05-07 12:30 52.67944 18.05207 33987 ft 417 kts 271°
2026-05-07 12:30 52.68351 18.00475 34245 ft 417 kts 271°
2026-05-07 12:30 52.68753 17.95764 34436 ft 419 kts 272°
2026-05-07 12:31 52.69158 17.91006 34637 ft 420 kts 272°
2026-05-07 12:31 52.69563 17.86228 34872 ft 421 kts 272°
2026-05-07 12:31 52.69967 17.81438 35106 ft 421 kts 272°
2026-05-07 12:31 52.70369 17.76647 35304 ft 422 kts 272°
2026-05-07 12:32 52.70772 17.71830 35503 ft 423 kts 272°
2026-05-07 12:32 52.71172 17.67016 35719 ft 424 kts 272°
2026-05-07 12:32 52.71566 17.62261 35923 ft 424 kts 272°
2026-05-07 12:32 52.71965 17.57410 36134 ft 425 kts 272°
2026-05-07 12:33 52.72757 17.47724 36534 ft 426 kts 272°
2026-05-07 12:33 52.73151 17.42863 36747 ft 426 kts 273°
2026-05-07 12:33 52.73537 17.38069 36936 ft 427 kts 273°
2026-05-07 12:34 52.73928 17.33199 37116 ft 428 kts 273°
2026-05-07 12:34 52.74318 17.28315 37292 ft 429 kts 273°
2026-05-07 12:34 52.74705 17.23432 37495 ft 428 kts 273°
2026-05-07 12:34 52.74961 17.20200 37636 ft 429 kts 273°
2026-05-07 12:35 52.75471 17.13714 37863 ft 429 kts 273°
2026-05-07 12:35 52.75853 17.08822 38005 ft 430 kts 273°
2026-05-07 12:35 52.76614 16.98983 38021 ft 431 kts 273°
2026-05-07 12:36 52.77242 16.90814 38010 ft 430 kts 273°
2026-05-07 12:36 52.77985 16.81022 38011 ft 428 kts 273°
2026-05-07 12:37 52.78718 16.71258 38021 ft 427 kts 273°
2026-05-07 12:37 52.79441 16.61510 38020 ft 427 kts 273°
2026-05-07 12:38 52.80150 16.51838 38027 ft 427 kts 273°
2026-05-07 12:38 52.80857 16.42090 38025 ft 428 kts 273°
2026-05-07 12:39 52.81558 16.32301 38019 ft 429 kts 273°
2026-05-07 12:39 52.82254 16.22482 38024 ft 430 kts 273°
2026-05-07 12:40 52.82943 16.12630 38020 ft 431 kts 273°
2026-05-07 12:40 52.83623 16.02793 38025 ft 433 kts 273°
2026-05-07 12:41 52.84301 15.92860 38024 ft 434 kts 273°
2026-05-07 12:41 52.84970 15.82943 38024 ft 436 kts 273°
2026-05-07 12:42 52.85635 15.72949 38032 ft 437 kts 273°
2026-05-07 12:42 52.86292 15.62952 38025 ft 439 kts 273°
2026-05-07 12:43 52.86945 15.52884 38027 ft 439 kts 272°
2026-05-07 12:43 52.87590 15.42814 38025 ft 440 kts 272°
2026-05-07 12:44 52.88223 15.32780 38026 ft 440 kts 272°
2026-05-07 12:44 52.88851 15.22689 38029 ft 439 kts 272°
2026-05-07 12:45 52.89470 15.12616 38035 ft 439 kts 272°
2026-05-07 12:45 52.90075 15.02627 38026 ft 438 kts 272°
2026-05-07 12:46 52.90676 14.92553 38027 ft 438 kts 272°
2026-05-07 12:46 52.91264 14.82560 38027 ft 437 kts 272°
2026-05-07 12:47 52.91845 14.72532 38034 ft 437 kts 272°
2026-05-07 12:47 52.92418 14.62494 38028 ft 437 kts 272°
2026-05-07 12:48 52.92981 14.52475 38027 ft 437 kts 272°
2026-05-07 12:48 52.93534 14.42497 38028 ft 436 kts 272°
2026-05-07 12:49 52.94081 14.32464 38031 ft 436 kts 272°
2026-05-07 12:49 52.94619 14.22433 38032 ft 437 kts 272°
2026-05-07 12:50 52.95148 14.12427 38029 ft 437 kts 272°
2026-05-07 12:50 52.95670 14.02389 38036 ft 437 kts 272°
2026-05-07 12:51 52.96180 13.92394 38033 ft 437 kts 272°
2026-05-07 12:51 52.96685 13.82352 38038 ft 437 kts 272°
2026-05-07 12:52 52.97182 13.72294 38040 ft 437 kts 272°
2026-05-07 12:52 52.97670 13.62240 38040 ft 437 kts 272°
2026-05-07 12:53 52.98150 13.52188 38036 ft 437 kts 272°
2026-05-07 12:53 52.98622 13.42105 38039 ft 437 kts 272°
2026-05-07 12:54 52.99082 13.32110 38039 ft 437 kts 272°
2026-05-07 12:54 52.99537 13.22038 38041 ft 438 kts 272°
2026-05-07 12:55 52.99984 13.11927 38044 ft 438 kts 272°
2026-05-07 12:55 53.00423 13.01837 38045 ft 438 kts 272°
2026-05-07 12:56 53.00850 12.91794 38042 ft 438 kts 272°
2026-05-07 12:56 53.01273 12.81658 38053 ft 439 kts 272°
2026-05-07 12:57 53.01686 12.71560 38050 ft 439 kts 272°
2026-05-07 12:57 53.02089 12.61495 38050 ft 439 kts 272°
2026-05-07 12:58 53.02486 12.51362 38050 ft 439 kts 272°
2026-05-07 12:58 53.02874 12.41221 38049 ft 439 kts 272°
2026-05-07 12:59 53.03254 12.31070 38051 ft 439 kts 271°
2026-05-07 12:59 53.03623 12.20995 38052 ft 439 kts 271°
2026-05-07 13:00 53.03986 12.10839 38049 ft 439 kts 271°
2026-05-07 13:00 53.04340 12.00698 38053 ft 439 kts 271°
2026-05-07 13:01 53.04683 11.90620 38055 ft 439 kts 271°
2026-05-07 13:01 53.05019 11.80473 38048 ft 439 kts 271°
2026-05-07 13:02 53.05347 11.70330 38052 ft 439 kts 271°
2026-05-07 13:02 53.05667 11.60183 38049 ft 439 kts 271°
2026-05-07 13:03 53.05975 11.50112 38054 ft 439 kts 271°
2026-05-07 13:03 53.06277 11.39970 38055 ft 439 kts 271°
2026-05-07 13:04 53.06572 11.29821 38054 ft 439 kts 271°
2026-05-07 13:04 53.06861 11.19737 38051 ft 439 kts 271°
2026-05-07 13:05 53.07243 11.09585 38053 ft 439 kts 272°
2026-05-07 13:05 53.07654 10.99492 38052 ft 440 kts 272°
2026-05-07 13:06 53.08052 10.89342 38049 ft 440 kts 272°
2026-05-07 13:06 53.08433 10.79177 38049 ft 440 kts 272°
2026-05-07 13:07 53.08802 10.69003 38050 ft 440 kts 272°
2026-05-07 13:07 53.09162 10.58819 38056 ft 441 kts 272°
2026-05-07 13:08 53.09512 10.48679 38064 ft 441 kts 272°
2026-05-07 13:08 53.09855 10.38482 38063 ft 441 kts 272°
2026-05-07 13:09 53.10189 10.28279 38064 ft 441 kts 272°
2026-05-07 13:09 53.10516 10.18062 38066 ft 441 kts 272°
2026-05-07 13:10 53.10830 10.07930 38067 ft 440 kts 271°
2026-05-07 13:10 53.11138 9.97747 38066 ft 440 kts 271°
2026-05-07 13:11 53.11436 9.87580 38058 ft 440 kts 271°
2026-05-07 13:11 53.11726 9.77411 38065 ft 439 kts 271°
2026-05-07 13:12 53.12008 9.67245 38060 ft 438 kts 271°
2026-05-07 13:12 53.12278 9.57158 38060 ft 438 kts 271°
2026-05-07 13:13 53.12541 9.47003 38064 ft 438 kts 271°
2026-05-07 13:13 53.12794 9.36931 38060 ft 438 kts 271°
2026-05-07 13:14 53.13040 9.26796 38062 ft 438 kts 271°
2026-05-07 13:14 53.13277 9.16656 38073 ft 437 kts 271°
2026-05-07 13:15 53.13505 9.06527 38074 ft 437 kts 271°
2026-05-07 13:15 53.13724 8.96452 38072 ft 438 kts 271°
2026-05-07 13:16 53.13935 8.86311 38075 ft 438 kts 271°
2026-05-07 13:16 53.14138 8.76169 38075 ft 438 kts 271°
2026-05-07 13:17 53.14331 8.66090 38079 ft 438 kts 271°
2026-05-07 13:17 53.14517 8.55940 38078 ft 438 kts 271°
2026-05-07 13:18 53.14694 8.45781 38074 ft 438 kts 270°
2026-05-07 13:18 53.14861 8.35684 38074 ft 438 kts 270°
2026-05-07 13:19 53.15021 8.25534 38063 ft 438 kts 270°
2026-05-07 13:19 53.15172 8.15384 38071 ft 438 kts 270°
2026-05-07 13:20 53.15315 8.05241 38056 ft 438 kts 270°
2026-05-07 13:20 53.15448 7.95153 38068 ft 437 kts 270°
2026-05-07 13:21 53.15573 7.85008 38058 ft 437 kts 270°
2026-05-07 13:21 53.15690 7.74863 38060 ft 437 kts 270°
2026-05-07 13:22 53.15797 7.64795 38062 ft 437 kts 270°
2026-05-07 13:22 53.15897 7.54655 38060 ft 437 kts 270°
2026-05-07 13:23 53.15987 7.44537 38062 ft 436 kts 270°
2026-05-07 13:23 53.16069 7.34475 38070 ft 437 kts 270°
2026-05-07 13:24 53.16131 7.25998 38067 ft 437 kts 270°
2026-05-07 13:24 53.16197 7.15929 38071 ft 436 kts 270°
2026-05-07 13:25 53.16255 7.05820 38061 ft 437 kts 270°
2026-05-07 13:25 53.16305 6.95687 38068 ft 436 kts 270°
2026-05-07 13:26 53.16346 6.85556 38074 ft 436 kts 269°
2026-05-07 13:26 53.16379 6.75498 38079 ft 436 kts 269°
2026-05-07 13:27 53.16402 6.65367 38082 ft 436 kts 269°
2026-05-07 13:27 53.16361 6.55243 38075 ft 436 kts 269°
2026-05-07 13:28 53.16288 6.45197 38075 ft 436 kts 269°
2026-05-07 13:28 53.16211 6.35076 38082 ft 436 kts 269°
2026-05-07 13:29 53.16131 6.24959 38073 ft 436 kts 268°
2026-05-07 13:29 53.16044 6.14921 38082 ft 436 kts 268°
2026-05-07 13:30 53.15950 6.04805 38098 ft 436 kts 268°
2026-05-07 13:30 53.15846 5.94687 38104 ft 435 kts 268°
2026-05-07 13:31 53.15735 5.84656 38105 ft 435 kts 268°
2026-05-07 13:31 53.15615 5.74566 38099 ft 435 kts 268°
2026-05-07 13:32 53.15486 5.64466 38099 ft 435 kts 268°
2026-05-07 13:32 53.15349 5.54448 38107 ft 435 kts 268°
2026-05-07 13:33 53.15203 5.44327 38095 ft 435 kts 268°
2026-05-07 13:33 53.15049 5.34301 38096 ft 435 kts 268°
2026-05-07 13:34 53.14802 5.19169 38099 ft 435 kts 268°
2026-05-07 13:35 53.14626 5.09068 38095 ft 435 kts 268°
2026-05-07 13:35 53.14442 4.98981 38099 ft 436 kts 267°
2026-05-07 13:36 53.14250 4.88946 38108 ft 436 kts 267°
2026-05-07 13:36 53.14048 4.78837 38108 ft 437 kts 267°
2026-05-07 13:37 53.13838 4.68704 38104 ft 437 kts 267°
2026-05-07 13:37 53.13620 4.58643 38108 ft 437 kts 267°
2026-05-07 13:38 53.13391 4.48494 38111 ft 438 kts 267°
2026-05-07 13:38 53.13156 4.38412 38109 ft 438 kts 267°
2026-05-07 13:39 53.12910 4.28262 38109 ft 438 kts 267°
2026-05-07 13:39 53.12655 4.18107 38108 ft 439 kts 266°
2026-05-07 13:40 53.12394 4.08008 38109 ft 439 kts 266°
2026-05-07 13:40 53.12122 3.97846 38110 ft 439 kts 266°
2026-05-07 13:41 53.11841 3.87666 38110 ft 439 kts 266°
2026-05-07 13:41 53.11554 3.77560 38114 ft 439 kts 266°
2026-05-07 13:42 53.11256 3.67381 38114 ft 439 kts 266°
2026-05-07 13:42 53.10948 3.57188 38112 ft 440 kts 266°
2026-05-07 13:43 53.10635 3.47088 38101 ft 440 kts 266°
2026-05-07 13:43 53.10313 3.36911 38090 ft 440 kts 266°
2026-05-07 13:44 53.09976 3.26739 38085 ft 440 kts 266°
2026-05-07 13:44 53.09607 3.16577 38080 ft 440 kts 265°
2026-05-07 13:45 53.09225 3.06421 38093 ft 440 kts 265°
2026-05-07 13:45 53.08841 2.96321 38110 ft 440 kts 265°
2026-05-07 13:46 53.08448 2.86171 38112 ft 440 kts 265°
2026-05-07 13:46 53.08045 2.75996 38111 ft 440 kts 265°
2026-05-07 13:47 53.07636 2.65889 38115 ft 440 kts 265°
2026-05-07 13:47 53.07217 2.55733 38112 ft 440 kts 265°
2026-05-07 13:48 53.06789 2.45574 38107 ft 440 kts 265°
2026-05-07 13:48 53.06356 2.35495 38112 ft 439 kts 265°
2026-05-07 13:49 53.05912 2.25348 38110 ft 439 kts 265°
2026-05-07 13:49 53.05459 2.15191 38104 ft 439 kts 265°
2026-05-07 13:50 53.05626 2.05118 38102 ft 441 kts 280°
2026-05-07 13:50 53.06875 1.95127 38105 ft 441 kts 281°
2026-05-07 13:51 53.08160 1.85129 38104 ft 441 kts 281°
2026-05-07 13:51 53.09394 1.75169 38101 ft 441 kts 280°
2026-05-07 13:52 53.10603 1.65151 38105 ft 441 kts 280°
2026-05-07 13:52 53.11793 1.55166 38101 ft 441 kts 280°
2026-05-07 13:53 53.12982 1.45125 38098 ft 441 kts 280°
2026-05-07 13:53 53.14162 1.35078 38100 ft 441 kts 279°
2026-05-07 13:54 53.15334 1.25031 38097 ft 442 kts 279°
2026-05-07 13:54 53.16491 1.15041 38095 ft 441 kts 279°
2026-05-07 13:55 53.17645 1.04986 38094 ft 441 kts 279°
2026-05-07 13:55 53.18792 0.94923 38090 ft 441 kts 279°
2026-05-07 13:56 53.19930 0.84848 38085 ft 441 kts 279°
2026-05-07 13:56 53.21054 0.74827 38085 ft 441 kts 279°
2026-05-07 13:57 53.22176 0.64758 38079 ft 441 kts 279°
2026-05-07 13:57 53.23288 0.54667 38086 ft 441 kts 279°
2026-05-07 13:58 53.24385 0.44589 38076 ft 441 kts 279°
2026-05-07 13:58 53.25470 0.34541 38076 ft 441 kts 278°
2026-05-07 13:59 53.26547 0.24497 37924 ft 444 kts 278°
2026-05-07 13:59 53.27092 0.19373 37407 ft 447 kts 279°
2026-05-07 13:59 53.27779 0.14326 36790 ft 447 kts 285°
2026-05-07 13:59 53.28746 0.09343 36015 ft 452 kts 289°
2026-05-07 14:00 53.29827 0.04399 35335 ft 454 kts 290°
2026-05-07 14:00 53.30951 -0.00541 34705 ft 455 kts 290°
2026-05-07 14:00 53.32070 -0.05438 34038 ft 458 kts 290°
2026-05-07 14:00 53.33205 -0.10453 33275 ft 460 kts 290°
2026-05-07 14:01 53.34326 -0.15479 32574 ft 461 kts 290°
2026-05-07 14:01 53.35439 -0.20525 31855 ft 461 kts 289°
2026-05-07 14:01 53.36539 -0.25564 31252 ft 460 kts 289°
2026-05-07 14:01 53.37629 -0.30578 30745 ft 456 kts 289°
2026-05-07 14:02 53.38704 -0.35544 30252 ft 452 kts 289°
2026-05-07 14:02 53.39770 -0.40482 29696 ft 448 kts 289°
2026-05-07 14:02 53.40813 -0.45322 29163 ft 444 kts 289°
2026-05-07 14:02 53.41853 -0.50154 28651 ft 438 kts 289°
2026-05-07 14:03 53.42883 -0.54953 28143 ft 433 kts 289°
2026-05-07 14:03 53.43897 -0.59687 27628 ft 429 kts 288°
2026-05-07 14:03 53.44897 -0.64368 27139 ft 424 kts 288°
2026-05-07 14:03 53.45888 -0.69016 26643 ft 420 kts 288°
2026-05-07 14:04 53.46868 -0.73620 26160 ft 416 kts 288°
2026-05-07 14:04 53.47825 -0.78129 25684 ft 413 kts 288°
2026-05-07 14:04 53.48782 -0.82651 25199 ft 410 kts 288°
2026-05-07 14:04 53.49734 -0.87153 24731 ft 406 kts 288°
2026-05-07 14:05 53.50673 -0.91612 24260 ft 403 kts 288°
2026-05-07 14:05 53.51606 -0.96044 23796 ft 401 kts 287°
2026-05-07 14:05 53.52530 -1.00451 23260 ft 398 kts 287°
2026-05-07 14:05 53.53447 -1.04830 22731 ft 395 kts 287°
2026-05-07 14:06 53.54353 -1.09164 22265 ft 390 kts 287°
2026-05-07 14:06 53.55247 -1.13448 21788 ft 387 kts 287°
2026-05-07 14:06 53.56133 -1.17705 21339 ft 383 kts 287°
2026-05-07 14:06 53.57007 -1.21908 20870 ft 379 kts 287°
2026-05-07 14:07 53.57875 -1.26097 20419 ft 376 kts 287°
2026-05-07 14:07 53.58505 -1.30267 19978 ft 370 kts 272°
2026-05-07 14:07 53.58358 -1.34514 19806 ft 357 kts 259°
2026-05-07 14:07 53.57942 -1.38582 19593 ft 351 kts 258°
2026-05-07 14:08 53.57491 -1.42646 19395 ft 357 kts 258°
2026-05-07 14:08 53.57046 -1.46801 19183 ft 361 kts 258°
2026-05-07 14:08 53.56625 -1.50916 18965 ft 361 kts 258°
2026-05-07 14:08 53.56209 -1.55062 18746 ft 357 kts 259°
2026-05-07 14:09 53.55798 -1.59168 18534 ft 354 kts 259°
2026-05-07 14:09 53.55386 -1.63249 18320 ft 352 kts 258°
2026-05-07 14:09 53.54973 -1.67319 18083 ft 350 kts 258°
2026-05-07 14:09 53.54569 -1.71297 17863 ft 348 kts 258°
2026-05-07 14:10 53.54159 -1.75313 17648 ft 347 kts 258°
2026-05-07 14:10 53.53752 -1.79304 17429 ft 346 kts 258°
2026-05-07 14:10 53.53343 -1.83288 17233 ft 345 kts 258°
2026-05-07 14:10 53.52940 -1.87192 17033 ft 345 kts 258°
2026-05-07 14:11 53.52519 -1.91256 16824 ft 346 kts 258°
2026-05-07 14:11 53.52105 -1.95239 16623 ft 346 kts 258°
2026-05-07 14:11 53.51690 -1.99208 16420 ft 346 kts 258°
2026-05-07 14:11 53.51277 -2.03154 16209 ft 347 kts 258°
2026-05-07 14:12 53.50858 -2.07147 16007 ft 346 kts 258°
2026-05-07 14:12 53.50439 -2.11128 15799 ft 345 kts 258°
2026-05-07 14:12 53.50020 -2.15098 15596 ft 344 kts 258°
2026-05-07 14:12 53.49601 -2.19047 15395 ft 343 kts 257°
2026-05-07 14:13 53.49184 -2.22974 15194 ft 341 kts 257°
2026-05-07 14:13 53.48766 -2.26895 14989 ft 340 kts 257°
2026-05-07 14:13 53.48350 -2.30793 14795 ft 339 kts 257°
2026-05-07 14:13 53.47933 -2.34673 14594 ft 338 kts 257°
2026-05-07 14:14 53.47656 -2.37251 14458 ft 337 kts 257°
2026-05-07 14:14 53.47239 -2.41118 14260 ft 336 kts 257°
2026-05-07 14:14 53.46685 -2.46236 13994 ft 335 kts 257°
2026-05-07 14:14 53.46403 -2.48828 13854 ft 334 kts 257°
2026-05-07 14:15 53.45986 -2.52662 13640 ft 333 kts 257°
2026-05-07 14:15 53.45581 -2.56483 13423 ft 332 kts 260°
2026-05-07 14:15 53.45388 -2.60307 13207 ft 332 kts 264°
2026-05-07 14:15 53.45272 -2.64174 13007 ft 331 kts 264°
2026-05-07 14:16 53.45172 -2.68026 12806 ft 330 kts 264°
2026-05-07 14:16 53.45076 -2.71856 12614 ft 329 kts 265°
2026-05-07 14:16 53.44983 -2.75692 12420 ft 328 kts 265°
2026-05-07 14:16 53.44891 -2.79510 12229 ft 326 kts 265°
2026-05-07 14:17 53.44800 -2.83323 12032 ft 325 kts 265°
2026-05-07 14:17 53.44708 -2.87111 11854 ft 324 kts 265°
2026-05-07 14:17 53.44619 -2.90849 11668 ft 324 kts 265°
2026-05-07 14:17 53.44527 -2.94619 11486 ft 323 kts 265°
2026-05-07 14:18 53.44434 -2.98385 11306 ft 322 kts 265°
2026-05-07 14:18 53.44341 -3.02131 11128 ft 321 kts 265°
2026-05-07 14:18 53.44247 -3.05873 10967 ft 319 kts 265°
2026-05-07 14:18 53.44154 -3.09546 10845 ft 318 kts 265°
2026-05-07 14:19 53.44061 -3.13241 10737 ft 315 kts 264°
2026-05-07 14:19 53.43969 -3.16923 10403 ft 317 kts 264°
2026-05-07 14:19 53.43878 -3.20584 10140 ft 311 kts 265°
2026-05-07 14:19 53.43791 -3.24169 9987 ft 301 kts 264°
2026-05-07 14:20 53.43711 -3.27587 9982 ft 287 kts 264°
2026-05-07 14:20 53.43638 -3.30916 9632 ft 286 kts 264°
2026-05-07 14:20 53.43505 -3.34158 9432 ft 277 kts 255°
2026-05-07 14:20 53.42728 -3.36997 9179 ft 265 kts 227°
2026-05-07 14:21 53.41286 -3.38807 8912 ft 258 kts 200°
2026-05-07 14:21 53.39541 -3.39205 8648 ft 254 kts 175°
2026-05-07 14:21 53.37805 -3.38750 8399 ft 251 kts 170°
2026-05-07 14:21 53.36096 -3.38188 8145 ft 249 kts 169°
2026-05-07 14:22 53.34402 -3.37615 7882 ft 248 kts 169°
2026-05-07 14:22 53.32718 -3.37045 7610 ft 246 kts 169°
2026-05-07 14:22 53.31052 -3.36481 7356 ft 243 kts 169°
2026-05-07 14:22 53.29398 -3.35918 7121 ft 242 kts 169°
2026-05-07 14:23 53.27891 -3.34839 6827 ft 239 kts 142°
2026-05-07 14:23 53.26940 -3.32618 6571 ft 237 kts 111°
2026-05-07 14:23 53.26836 -3.29904 6296 ft 237 kts 79°
2026-05-07 14:23 53.27496 -3.27414 6057 ft 235 kts 58°
2026-05-07 14:24 53.28539 -3.25228 5435 ft 246 kts 51°
2026-05-07 14:24 53.29687 -3.23021 4818 ft 257 kts 51°
2026-05-07 14:24 53.30877 -3.20738 4243 ft 261 kts 54°
2026-05-07 14:24 53.31626 -3.18058 3849 ft 250 kts 81°
2026-05-07 14:25 53.31949 -3.15227 3499 ft 246 kts 84°
2026-05-07 14:25 53.32151 -3.12422 3169 ft 240 kts 89°
2026-05-07 14:25 53.32267 -3.09685 2864 ft 232 kts 90°
2026-05-07 14:25 53.32377 -3.07050 2548 ft 221 kts 89°
2026-05-07 14:26 53.32486 -3.04567 2264 ft 212 kts 90°
2026-05-07 14:26 53.32592 -3.02175 1949 ft 200 kts 90°
2026-05-07 14:26 53.32691 -2.99923 1685 ft 189 kts 91°
2026-05-07 14:26 53.32786 -2.97788 1472 ft 179 kts 90°
2026-05-07 14:27 53.32873 -2.95734 1176 ft 174 kts 91°
2026-05-07 14:27 53.32963 -2.93789 934 ft 164 kts 90°
2026-05-07 14:27 53.33045 -2.91960 745 ft 157 kts 89°
2026-05-07 14:27 53.33126 -2.90202 509 ft 148 kts 90°
2026-05-07 14:28 53.33204 -2.88499 336 ft 145 kts 88°
2026-05-07 14:28 53.33276 -2.86841 150 ft 145 kts 86°
2026-05-07 14:28 53.33349 -2.85243 87 ft 115 kts 85°
2026-05-07 14:28 53.33397 -2.84205 85 ft 75 kts 85°
2026-05-07 14:29 53.33426 -2.83647 89 ft 16 kts 66°
2026-05-07 14:29 53.33506 -2.83631 86 ft 12 kts 355°
2026-05-07 14:29 53.33580 -2.83667 87 ft 12 kts 300°
2026-05-07 14:29 53.33582 -2.83799 86 ft 11 kts 265°
2026-05-07 14:30 53.33576 -2.83929 85 ft 11 kts 265°
2026-05-07 14:30 53.33570 -2.84056 88 ft 11 kts 265°
2026-05-07 14:30 53.33562 -2.84243 84 ft 18 kts 265°
2026-05-07 14:30 53.33552 -2.84454 87 ft 18 kts 265°
2026-05-07 14:31 53.33541 -2.84683 84 ft 21 kts 266°
2026-05-07 14:31 53.33530 -2.84927 84 ft 21 kts 265°
2026-05-07 14:31 53.33519 -2.85166 86 ft 20 kts 265°
2026-05-07 14:31 53.33508 -2.85396 86 ft 20 kts 265°
2026-05-07 14:32 53.33531 -2.85500 87 ft 9 kts 345°
2026-05-07 14:32 53.33592 -2.85516 88 ft 9 kts 343°
2026-05-07 14:32 53.33608 -2.85608 85 ft 9 kts 266°
2026-05-07 14:32 53.33603 -2.85707 84 ft 8 kts 265°
2026-05-07 14:33 53.33599 -2.85794 86 ft 7 kts 265°
2026-05-07 14:33 53.33616 -2.85836 86 ft 5 kts 336°
2026-05-07 14:33 53.33638 -2.85843 84 ft 2 kts 353°
2026-05-07 14:33 53.33645 -2.85845 84 ft 0 kts 353°